Date,TemperatureHighF,TemperatureAvgF,TemperatureLowF,DewpointHighF,DewpointAvgF,DewpointLowF,HumidityHigh,HumidityAvg,HumidityLow,PressureMaxIn,PressureMinIn,WindSpeedMaxMPH,WindSpeedAvgMPH,GustSpeedMaxMPH,PrecipitationSumIn
2013-1-1,16,9,5,2,-3,-6,79,59,42,30.43,30.27,9,3,12,0.00
2013-1-2,18,9,3,1,-2,-6,79,61,44,30.56,30.41,5,2,7,0.00
2013-1-3,33,12,-5,-4,-8,-14,72,46,14,30.63,30.51,3,0,3,0.00
2013-1-4,42,21,8,11,4,-5,74,49,25,30.54,30.21,2,0,4,0.00
2013-1-5,34,25,14,2,-4,-12,48,28,20,30.38,30.19,4,2,10,0.00
2013-1-6,48,27,9,0,-10,-20,34,21,7,30.37,30.05,3,0,7,0.00
2013-1-7,44,33,24,4,-7,-20,29,18,6,30.05,29.77,4,1,14,0.00
2013-1-8,30,27,22,15,9,-10,59,47,17,30.32,29.77,6,2,11,0.00
2013-1-9,52,34,24,14,7,1,48,34,12,30.36,30.00,3,1,7,0.00
2013-1-10,45,30,19,9,2,-5,49,32,12,29.98,29.46,4,0,6,0.00
2013-1-11,25,15,2,17,4,-8,81,59,42,29.83,29.22,6,2,26,0.00
2013-1-12,11,0,-10,-7,-11,-16,79,59,36,30.28,29.84,3,1,6,0.00
2013-1-13,6,-4,-16,-4,-11,-21,82,70,39,30.48,30.28,3,0,3,0.00
2013-1-14,9,-3,-16,-4,-12,-21,87,66,48,30.58,30.46,6,1,7,0.00
2013-1-15,21,10,-3,8,-4,-18,62,52,44,30.55,30.49,8,3,12,0.00
2013-1-16,35,25,16,16,13,8,80,61,44,30.50,30.37,7,2,15,0.00
2013-1-17,44,27,10,14,7,2,78,48,20,30.58,30.33,4,1,7,0.00
2013-1-18,38,32,28,5,1,-3,34,26,22,30.33,30.10,8,5,19,0.00
2013-1-19,40,32,27,1,-1,-5,32,24,17,30.28,30.01,8,3,18,0.00
2013-1-20,38,30,26,3,0,-5,35,28,19,30.26,30.11,5,2,12,0.00
2013-1-21,36,29,23,9,2,-6,39,30,19,30.24,30.13,8,4,14,0.00
2013-1-22,42,36,31,-6,-12,-29,19,12,4,30.21,30.06,8,5,22,0.00
2013-1-23,55,42,30,9,-10,-34,31,12,3,30.18,30.03,7,2,12,0.00
2013-1-24,46,37,30,26,10,-7,72,37,13,30.06,29.87,6,3,21,0.00
2013-1-25,44,36,30,26,24,22,75,64,47,30.09,30.01,6,2,12,0.00
2013-1-26,45,34,26,28,24,19,93,67,36,30.00,29.63,3,1,6,0.00
2013-1-27,44,33,20,27,21,10,95,64,28,29.74,29.61,4,1,12,0.00
2013-1-28,41,26,16,22,15,7,91,64,34,29.69,29.51,5,1,8,0.00
2013-1-29,17,10,0,13,-1,-7,89,63,37,30.16,29.63,5,2,11,0.00
2013-1-30,20,12,3,14,6,-4,85,75,63,30.18,30.05,9,4,16,0.00
2013-1-31,28,23,19,15,12,8,84,64,47,30.26,30.02,10,6,28,0.00
2013-2-1,28,24,22,19,14,10,85,67,57,30.26,30.09,8,5,21,0.00
2013-2-2,37,27,21,14,8,2,69,46,26,30.44,30.18,9,3,24,0.02
2013-2-3,42,31,21,6,-2,-13,41,26,10,30.32,29.92,6,2,12,0.00
2013-2-4,36,28,24,11,4,-2,50,35,26,30.02,29.89,9,4,27,0.00
2013-2-5,45,33,27,21,16,11,66,50,37,30.07,29.84,7,3,21,0.00
2013-2-6,38,32,21,23,17,14,83,56,40,30.00,29.75,3,1,8,0.00
2013-2-7,40,25,15,14,0,-19,76,40,7,30.17,30.00,4,1,6,0.00
2013-2-8,42,29,14,17,3,-10,63,34,18,30.11,29.71,5,1,11,0.00
2013-2-9,28,21,14,22,13,7,88,72,53,29.70,29.45,4,1,8,0.00
2013-2-10,19,13,5,12,7,1,90,77,54,30.17,29.57,3,1,9,0.00
2013-2-11,24,8,-5,13,3,-9,89,80,63,30.33,30.18,2,0,4,0.02
2013-2-12,27,14,6,4,-1,-8,76,51,30,30.33,30.28,5,3,12,0.02
2013-2-13,26,20,14,14,9,4,73,62,54,30.30,30.13,8,4,22,0.00
2013-2-14,27,18,11,16,10,7,90,71,54,30.32,30.07,7,2,14,0.00
2013-2-15,24,17,13,13,9,6,86,72,50,30.49,30.29,5,2,11,0.00
2013-2-16,36,27,19,14,9,3,66,48,32,30.43,30.08,9,5,24,0.00
2013-2-17,45,32,17,13,1,-10,67,30,13,30.09,29.57,8,3,15,0.00
2013-2-18,21,15,11,7,1,-12,76,54,28,30.24,29.63,5,2,9,0.00
2013-2-19,42,21,8,-3,-12,-23,39,26,6,30.24,30.02,2,0,4,0.00
2013-2-20,32,18,12,14,12,9,89,79,41,29.72,29.62,2,0,7,0.00
2013-2-21,22,14,5,16,9,1,91,83,73,30.02,29.68,2,0,6,0.02
2013-2-22,25,15,8,12,4,0,92,62,42,30.09,29.97,8,2,18,0.00
2013-2-23,36,22,11,19,9,-1,89,58,36,29.99,29.73,8,3,19,0.00
2013-2-24,16,13,0,14,10,-4,89,87,82,30.26,29.70,2,0,7,0.00
2013-2-25,29,17,0,12,5,-3,99,62,38,30.32,29.99,5,2,10,0.00
2013-2-26,22,17,10,14,9,6,92,72,51,30.24,29.86,3,1,6,0.00
2013-2-27,24,13,4,6,1,-5,84,59,33,30.49,30.24,5,2,12,0.00
2013-2-28,25,17,10,12,5,-2,77,60,42,30.50,30.39,6,3,14,0.00
2013-3-1,34,25,17,20,16,10,81,69,53,30.49,30.42,6,3,22,0.01
2013-3-2,41,33,27,21,18,14,76,55,39,30.45,30.08,7,4,16,0.00
2013-3-3,45,36,26,24,18,12,77,50,34,30.07,29.61,7,3,22,0.00
2013-3-4,37,22,12,25,13,-1,90,68,42,30.21,29.58,6,2,13,0.04
2013-3-5,43,25,11,2,-4,-11,61,31,12,30.44,30.22,4,2,10,0.00
2013-3-6,53,30,17,13,4,-7,50,34,15,30.25,29.85,3,0,5,0.00
2013-3-7,50,38,23,21,12,5,80,36,16,29.88,29.77,4,1,15,0.00
2013-3-8,46,32,22,23,16,7,88,55,27,29.87,29.60,3,0,5,0.00
2013-3-9,25,22,9,23,19,5,98,89,84,30.12,29.53,2,0,6,0.00
2013-3-10,32,20,5,18,11,2,88,68,47,30.29,30.11,7,2,18,0.01
2013-3-11,36,28,22,22,16,8,87,61,50,30.22,29.90,10,5,26,0.00
2013-3-12,38,28,18,24,20,16,92,72,49,30.27,30.10,5,2,16,0.00
2013-3-13,45,37,30,22,19,15,66,50,33,30.29,30.19,7,3,19,0.00
2013-3-14,53,42,34,21,16,6,53,36,15,30.24,30.05,6,2,15,0.00
2013-3-15,57,45,36,26,19,14,62,36,23,30.06,29.75,5,2,15,0.00
2013-3-16,43,35,27,28,24,20,80,65,49,29.77,29.67,4,1,7,0.00
2013-3-17,33,27,23,23,16,8,78,65,38,29.76,29.64,3,1,10,0.00
2013-3-19,36,28,13,4,-9,-18,63,22,11,30.34,30.05,9,3,21,0.00
2013-3-20,44,29,10,22,9,-8,70,45,24,30.32,29.74,9,3,19,0.00
2013-3-21,42,29,18,26,17,8,82,62,37,29.77,29.45,8,4,20,0.00
2013-3-22,36,21,12,18,11,0,90,69,23,29.94,29.73,6,1,13,0.00
2013-3-23,14,7,-2,11,3,-6,88,83,76,30.41,29.91,2,0,6,0.00
2013-3-24,16,6,-5,6,-1,-9,89,75,50,30.50,30.39,4,1,11,0.00
2013-3-25,7,6,3,2,1,0,85,81,77,30.49,30.45,1,0,11,0.00
2013-3-26,44,34,21,20,16,8,74,49,31,30.28,30.05,5,2,18,0.02
2013-3-27,46,32,20,28,21,16,92,66,32,30.09,29.96,5,1,11,0.00
2013-3-28,52,35,22,26,19,15,85,59,23,30.13,30.04,3,1,10,0.00
2013-3-29,49,36,25,33,24,19,87,64,37,30.12,30.03,5,2,11,0.00
2013-3-30,49,37,26,30,24,20,91,64,32,30.10,29.96,6,2,10,0.00
2013-3-31,53,37,21,23,16,8,93,51,18,30.10,29.99,6,2,13,0.00
2013-4-1,48,32,21,31,24,17,94,75,42,30.07,29.88,3,0,6,0.00
2013-4-2,35,29,27,31,27,25,95,92,84,30.11,29.96,2,0,3,0.00
2013-4-3,49,34,17,30,23,15,97,69,38,30.17,30.07,4,1,9,0.04
2013-4-4,55,41,30,25,21,16,75,47,23,30.15,29.93,5,2,10,0.00
2013-4-5,57,42,31,31,21,17,92,49,22,29.93,29.57,5,2,9,0.00
2013-4-6,48,36,27,27,23,18,86,60,33,29.87,29.73,5,1,8,0.10
2013-4-7,45,36,29,32,24,20,86,64,42,29.83,29.66,6,3,13,0.00
2013-4-8,50,36,22,28,22,13,92,59,31,29.69,29.34,4,1,7,0.00
2013-4-9,22,10,2,20,6,-2,91,84,73,30.25,29.56,4,1,5,0.00
2013-4-10,32,20,-5,19,11,-9,90,68,53,30.40,30.08,7,3,18,0.08
2013-4-11,40,29,19,26,20,10,82,69,50,30.09,29.83,7,3,20,0.00
2013-4-12,45,33,25,25,20,10,91,62,24,29.91,29.82,7,2,13,0.00
2013-4-13,51,39,24,30,15,8,91,40,24,29.88,29.35,8,3,21,0.00
2013-4-14,32,22,18,30,16,12,92,78,55,29.82,29.33,4,2,11,0.00
2013-4-15,27,20,16,23,17,11,92,86,64,30.01,29.78,3,0,5,0.00
2013-4-16,30,20,14,24,17,12,93,90,78,30.05,29.87,2,0,5,0.00
2013-4-17,23,14,2,19,12,-1,93,88,80,30.25,29.95,2,0,5,0.00
2013-4-18,22,11,0,10,3,-4,89,71,52,30.47,30.23,6,3,17,0.00
2013-4-19,37,26,16,20,13,7,74,59,43,30.43,30.08,8,4,22,0.04
2013-4-20,43,33,25,25,21,18,82,63,39,30.08,29.91,4,2,8,0.24
2013-4-21,45,35,28,24,19,12,79,54,34,30.06,29.92,5,2,13,0.00
2013-4-22,39,24,11,32,19,8,94,82,50,30.22,29.84,4,1,8,0.16
2013-4-23,28,17,8,20,11,5,88,78,55,30.38,30.17,3,1,6,0.07
2013-4-24,38,25,9,17,10,4,82,55,30,30.38,30.30,8,2,12,0.03
2013-4-25,54,35,16,21,11,1,72,40,20,30.31,29.95,4,1,10,0.00
2013-4-26,50,37,24,23,17,12,74,48,23,30.25,30.02,3,1,7,0.00
2013-4-27,56,42,27,22,16,12,71,37,19,30.24,30.01,5,2,11,0.00
2013-4-28,61,49,38,28,20,12,49,32,21,30.01,29.74,5,2,16,0.00
2013-4-29,62,49,33,30,24,18,78,40,20,29.76,29.46,5,2,13,0.00
2013-4-30,53,43,28,36,28,18,93,59,29,29.74,29.42,4,1,7,0.02
2013-5-1,29,20,11,27,18,7,94,88,81,30.67,29.75,2,0,6,0.00
2013-5-2,34,18,2,23,11,-2,92,76,51,30.92,30.63,3,1,12,0.00
2013-5-3,48,35,26,26,18,10,83,51,26,30.63,30.09,4,2,12,0.22
2013-5-4,44,32,20,28,24,17,89,71,41,30.22,30.03,3,0,5,0.00
2013-5-5,47,34,22,29,25,19,90,71,47,30.22,30.06,2,0,4,0.00
2013-5-6,53,39,28,37,29,25,91,69,45,30.10,29.86,3,0,4,0.00
2013-5-7,58,42,30,36,30,24,91,67,28,29.88,29.77,4,2,10,0.02
2013-5-8,40,33,28,37,31,26,96,93,77,30.10,29.82,2,0,4,0.25
2013-5-9,43,34,29,38,32,28,97,94,79,30.20,30.08,3,0,5,0.75
2013-5-10,48,32,25,35,29,24,98,88,58,30.29,30.19,2,0,5,0.08
2013-5-12,58,48,42,33,29,28,62,50,32,30.02,29.99,1,0,2,0.00
2013-5-13,72,58,42,39,32,26,72,40,18,30.00,29.80,4,2,16,0.00
2013-5-14,69,55,42,39,33,27,70,45,21,29.80,29.70,6,2,12,0.00
2013-5-15,69,50,39,43,36,31,90,61,26,29.74,29.67,3,1,6,0.05
2013-5-16,67,53,39,38,33,28,87,50,26,29.72,29.64,4,2,9,0.00
2013-5-17,72,57,37,34,21,7,79,31,8,29.67,29.54,5,2,14,0.00
2013-5-18,59,47,38,32,25,16,78,45,24,29.67,29.55,6,1,12,0.00
2013-5-19,52,42,36,30,27,25,77,58,36,29.74,29.63,6,4,16,0.00
2013-5-20,50,41,35,37,30,24,87,64,47,29.91,29.69,5,2,13,0.01
2013-5-21,55,42,31,30,26,20,74,53,30,29.94,29.80,5,2,11,0.00
2013-5-22,63,46,30,41,31,21,95,63,20,29.89,29.76,4,1,11,0.11
2013-5-23,62,47,37,48,42,35,97,83,52,29.89,29.76,3,1,7,0.00
2013-5-24,72,53,36,38,28,10,96,49,9,29.84,29.74,4,1,9,0.00
2013-5-25,73,56,36,33,19,1,83,32,6,29.78,29.68,5,1,10,0.00
2013-5-26,72,54,41,34,24,12,58,33,10,29.70,29.62,6,1,11,0.00
2013-5-27,69,55,41,27,18,11,52,26,12,29.66,29.51,5,2,15,0.00
2013-5-28,65,51,35,40,23,14,66,37,14,29.57,29.39,5,1,11,0.00
2013-5-29,51,42,33,39,32,24,96,69,39,29.58,29.34,6,2,11,0.24
2013-5-30,48,40,33,31,27,22,89,62,36,29.83,29.53,9,4,22,0.02
2013-5-31,53,43,35,23,17,7,56,36,17,29.93,29.69,10,5,22,0.00
2013-6-1,55,44,35,35,29,17,83,55,37,30.07,29.93,4,2,11,0.00
2013-6-2,73,52,28,36,28,20,95,47,14,30.07,29.67,5,1,10,0.00
2013-6-3,74,61,47,30,23,16,45,25,12,29.67,29.47,6,2,15,0.00
2013-6-4,66,50,34,48,36,13,95,62,27,29.94,29.59,3,1,8,0.14
2013-6-5,53,42,35,45,39,34,100,89,68,30.03,29.89,2,0,4,0.03
2013-6-6,66,49,30,39,34,28,96,61,30,30.03,29.91,3,1,10,0.00
2013-6-7,70,52,35,43,35,29,94,58,23,29.95,29.64,4,1,7,0.00
2013-6-8,67,55,40,48,39,32,87,56,29,29.76,29.52,5,1,11,0.01
2013-6-9,78,59,37,37,32,26,90,42,16,29.88,29.75,4,1,14,0.00
2013-6-10,84,67,48,49,30,21,68,29,11,29.75,29.55,5,1,14,0.00
2013-6-11,80,68,53,30,20,2,33,18,5,29.57,29.45,7,3,17,0.00
2013-6-12,78,64,48,38,28,18,47,27,17,29.77,29.56,5,1,8,0.00
2013-6-13,81,58,46,46,36,24,67,44,15,29.77,29.56,5,1,19,0.00
2013-6-14,79,62,44,39,32,19,68,34,12,29.63,29.54,5,1,9,0.00
2013-6-15,68,53,37,47,42,33,92,66,44,29.88,29.62,3,1,6,0.00
2013-6-16,55,46,41,43,33,30,88,62,39,29.93,29.84,2,0,5,0.00
2013-6-17,70,55,41,45,37,28,80,53,23,29.93,29.82,4,1,12,0.00
2013-6-18,68,54,38,47,40,34,89,64,32,29.87,29.68,2,0,5,0.06
2013-6-19,78,60,37,42,26,4,96,41,6,29.75,29.48,4,1,6,0.00
2013-6-20,73,60,46,34,24,9,48,26,17,29.65,29.52,4,1,9,0.00
2013-6-21,79,61,43,37,26,15,74,30,10,29.65,29.55,4,1,8,0.00
2013-6-22,70,58,41,44,31,18,79,40,16,29.66,29.52,4,1,6,0.00
2013-6-23,70,56,38,43,33,21,65,42,29,29.72,29.59,4,1,7,0.00
2013-6-24,74,60,39,39,27,15,87,35,11,29.66,29.51,3,1,7,0.00
2013-6-25,76,61,46,34,28,20,47,30,19,29.76,29.54,5,2,12,0.00
2013-6-26,85,65,45,37,32,29,57,33,15,29.83,29.73,4,1,10,0.00
2013-6-27,85,68,50,41,34,29,48,30,14,29.89,29.78,5,1,7,0.00
2013-6-28,83,65,49,54,42,30,94,48,15,29.89,29.76,3,1,7,0.28
2013-6-29,75,56,44,56,48,43,98,79,34,29.94,29.83,3,0,8,0.09
2013-6-30,71,56,46,53,49,44,96,78,43,29.97,29.86,4,0,6,0.07
2013-7-1,66,52,39,52,45,37,98,81,44,30.10,29.97,3,0,5,0.13
2013-7-2,69,53,39,52,44,38,97,76,42,30.07,29.92,3,1,7,0.03
2013-7-3,76,55,38,51,43,36,96,70,30,29.93,29.71,2,0,10,0.04
2013-7-4,74,59,49,51,43,39,85,58,30,29.78,29.69,3,1,7,0.01
2013-7-5,74,64,50,52,47,44,85,58,37,29.67,29.62,4,1,15,0.01
2013-7-6,74,58,51,48,46,43,85,66,33,29.69,29.61,4,1,7,0.00
2013-7-7,76,63,49,50,45,39,84,56,28,29.77,29.65,4,1,7,0.00
2013-7-8,80,63,45,50,43,36,97,54,23,29.83,29.72,5,2,8,0.01
2013-7-9,83,65,52,46,37,29,70,39,14,29.88,29.81,4,1,7,0.00
2013-7-10,80,63,44,50,43,36,76,51,29,29.88,29.74,4,1,6,0.00
2013-7-11,83,64,48,58,45,34,88,56,20,29.80,29.57,9,1,10,0.01
2013-7-12,78,58,51,56,50,45,95,75,35,29.80,29.59,3,0,6,0.02
2013-7-13,76,56,50,58,50,48,97,85,40,29.94,29.79,3,0,6,1.07
2013-7-14,62,55,46,56,51,46,98,89,69,30.00,29.88,3,0,7,0.30
2013-7-15,66,55,47,57,52,46,98,89,69,29.95,29.82,2,0,7,0.05
2013-7-16,70,56,41,52,46,40,98,74,40,29.98,29.87,3,1,7,0.00
2013-7-17,78,59,43,56,47,41,96,69,37,29.98,29.83,3,1,7,0.00
2013-7-18,79,62,50,54,49,43,96,67,36,29.86,29.70,4,1,7,0.33
2013-7-19,71,58,49,54,51,46,97,78,47,29.92,29.80,3,1,8,0.01
2013-7-20,78,58,43,52,45,39,92,65,27,29.83,29.67,3,1,7,0.01
2013-7-21,83,64,44,49,36,24,93,41,12,29.70,29.61,3,1,7,0.00
2013-7-22,84,66,49,39,28,13,55,29,7,29.71,29.62,5,1,13,0.00
2013-7-23,83,65,52,50,33,17,85,35,11,29.78,29.65,3,1,7,0.00
2013-7-24,69,57,50,56,49,44,93,76,56,29.90,29.73,6,1,9,0.09
2013-7-25,62,52,46,53,48,45,98,89,63,30.08,29.79,3,0,5,0.58
2013-7-26,72,56,42,50,43,36,98,68,28,30.12,29.93,3,1,8,0.00
2013-7-27,77,57,44,54,44,37,96,67,24,29.93,29.70,3,1,7,0.60
2013-7-28,64,53,46,54,50,45,98,89,55,29.76,29.64,3,0,8,0.18
2013-7-29,68,55,47,51,46,43,94,73,46,29.95,29.73,4,1,11,0.07
2013-7-30,75,58,43,46,43,40,96,61,29,30.05,29.93,6,1,10,0.00
2013-7-31,78,61,46,47,43,35,87,56,21,30.03,29.87,3,1,9,0.00
2013-8-1,57,51,46,46,44,42,92,79,61,29.90,29.72,2,0,2,0.00
2013-8-2,79,65,50,46,43,34,77,47,23,29.72,29.65,5,2,13,0.00
2013-8-3,72,58,48,56,46,39,94,68,31,29.97,29.70,4,1,18,0.24
2013-8-4,79,62,45,48,44,38,93,55,24,29.93,29.80,6,1,10,0.00
2013-8-5,72,58,47,52,44,39,93,61,33,29.80,29.72,6,1,10,0.10
2013-8-6,77,59,48,46,41,34,89,54,22,29.82,29.73,4,1,8,0.00
2013-8-7,65,53,43,48,41,36,87,65,35,29.84,29.76,4,1,9,0.00
2013-8-8,65,50,39,51,43,34,96,77,44,30.01,29.81,3,0,5,0.32
2013-8-9,65,48,39,50,44,38,98,87,43,30.08,29.97,2,0,5,0.31
2013-8-18,79,64,50,47,38,31,72,41,18,29.83,29.71,6,1,10,0.00
2013-8-19,79,64,48,45,40,35,72,44,23,29.84,29.74,3,1,4,0.00
2013-8-20,82,66,49,42,38,30,63,39,16,29.76,29.66,2,1,5,0.00
2013-8-21,75,61,48,53,44,38,82,56,29,29.84,29.71,3,0,6,0.00
2013-8-22,72,56,46,56,48,43,97,79,41,29.95,29.84,6,0,9,0.72
2013-8-23,75,54,47,58,50,46,98,87,35,29.95,29.77,3,0,6,0.73
2013-8-24,68,53,42,54,48,42,98,84,49,29.95,29.82,3,0,5,0.21
2013-8-25,70,55,45,56,49,44,100,83,44,29.95,29.90,3,0,9,0.11
2013-8-26,76,58,48,59,51,47,97,80,40,29.94,29.86,7,1,9,0.66
2013-8-27,75,59,45,58,51,44,98,79,44,29.92,29.82,2,0,6,0.01
2013-8-28,79,60,47,54,49,44,97,69,32,29.89,29.79,2,0,5,0.00
2013-8-29,78,60,48,57,47,42,94,66,31,29.97,29.86,8,1,9,0.10
2013-8-30,77,60,49,55,48,43,86,65,32,29.96,29.84,4,0,8,0.02
2013-8-31,59,54,47,51,46,42,97,77,56,29.88,29.79,3,0,4,0.20
2013-9-1,67,55,46,57,50,43,98,86,53,29.94,29.88,3,0,5,0.01
2013-9-2,50,47,46,46,43,42,90,86,80,29.92,29.90,0,0,0,0.00
2013-9-3,65,60,57,48,47,46,70,64,53,29.82,29.77,2,0,3,0.00
2013-9-4,79,61,51,56,48,44,82,65,31,29.92,29.80,2,0,4,0.01
2013-9-5,80,62,47,54,46,41,85,60,32,29.94,29.85,2,0,4,0.00
2013-9-6,78,61,50,52,46,40,86,61,28,29.89,29.79,4,0,7,0.02
2013-9-7,79,60,46,51,44,41,88,60,28,29.88,29.77,2,0,5,0.00
2013-9-8,52,47,46,45,41,39,85,80,74,29.79,29.74,0,0,1,0.00
2013-9-9,54,50,49,52,49,48,96,95,91,29.80,29.69,1,0,2,0.87
2013-9-10,54,50,48,52,49,47,98,97,94,29.98,29.77,1,0,2,0.66
2013-9-11,51,50,49,51,49,48,98,98,97,30.00,29.94,0,0,3,1.01
2013-9-12,55,51,48,53,50,48,99,96,90,30.07,29.96,2,0,8,0.53
2013-9-13,53,48,44,51,47,43,97,95,92,29.75,29.69,0,0,4,0.29
2013-9-14,62,48,42,52,46,41,99,92,58,29.87,29.73,2,0,7,0.30
2013-9-15,48,46,44,47,45,43,98,97,96,30.10,29.85,1,0,4,1.05
2013-9-16,62,49,35,52,43,35,99,82,51,30.09,29.90,3,0,7,0.01
2013-9-17,51,49,47,42,40,38,78,70,66,29.93,29.88,1,0,4,0.00
2013-9-18,52,49,46,40,39,37,75,68,57,29.74,29.63,2,0,6,0.01
2013-9-19,54,45,35,43,39,33,94,79,63,30.03,29.70,2,0,6,0.01
2013-9-20,51,38,30,40,34,29,100,87,68,30.05,29.92,1,0,4,0.00
2013-9-21,70,53,38,41,34,25,77,51,28,29.94,29.62,4,1,8,0.00
2013-9-22,61,48,38,47,39,32,95,72,45,29.63,29.38,3,0,5,0.20
2013-9-23,47,40,36,36,31,27,94,70,50,30.05,29.29,11,5,27,0.09
2013-9-24,43,42,40,28,26,24,61,53,49,30.05,30.01,5,3,11,0.00
2013-9-27,39,32,28,37,28,20,96,85,72,29.90,29.58,7,3,15,0.25
2013-9-28,53,37,28,32,23,15,76,57,38,30.21,29.90,7,3,17,0.00
2013-9-29,62,48,33,25,20,15,69,33,20,30.15,29.68,9,3,20,0.00
2013-9-30,51,50,48,24,21,19,38,31,29,29.77,29.71,7,4,11,0.00
2013-10-1,41,39,38,34,32,29,82,77,62,29.79,29.78,0,0,0,0.00
2013-10-2,64,48,35,34,29,21,88,52,21,29.83,29.71,3,1,6,0.00
2013-10-3,62,45,33,40,33,22,95,66,25,29.71,29.50,3,1,6,0.02
2013-10-4,38,28,20,37,23,14,95,82,66,30.16,29.50,6,2,11,0.00
2013-10-5,38,29,20,15,13,5,77,52,31,30.39,30.14,8,4,14,0.01
2013-10-6,44,37,32,27,19,11,57,48,41,30.37,30.14,5,2,15,0.00
2013-10-7,68,52,38,29,17,6,53,28,11,30.14,29.83,4,2,8,0.00
2013-10-8,66,51,35,34,25,17,69,40,16,29.68,29.57,3,1,11,0.00
2013-10-9,57,42,32,37,31,24,89,66,32,29.83,29.64,3,0,8,0.00
2013-10-10,37,33,31,34,28,23,95,82,64,29.80,29.41,7,2,15,0.00
2013-10-11,42,36,29,30,26,23,92,69,51,30.01,29.40,9,4,25,0.00
2013-10-12,47,32,23,34,27,20,95,82,55,30.13,30.00,2,0,5,0.01
2013-10-13,54,38,25,38,29,23,100,75,36,30.14,29.82,3,0,7,0.00
2013-10-14,39,32,27,32,26,23,94,78,63,30.10,29.66,5,1,21,0.00
2013-10-15,29,25,23,25,22,21,92,88,76,30.25,30.10,2,0,4,0.00
2013-10-16,40,30,20,21,18,15,93,64,43,30.23,30.09,5,2,11,0.00
2013-10-17,30,28,24,25,19,13,89,71,49,30.12,29.95,4,1,12,0.00
2013-10-18,33,26,18,24,17,12,93,71,49,30.20,29.96,6,2,21,0.00
2013-10-19,43,35,27,20,16,13,61,48,35,30.23,29.93,8,4,20,0.00
2013-10-20,40,33,20,29,22,17,92,65,45,30.06,29.85,4,1,12,0.00
2013-10-21,43,31,19,23,20,17,93,65,39,30.29,30.06,4,1,11,0.00
2013-10-22,53,41,32,27,23,20,61,49,32,30.25,30.04,4,2,11,0.00
2013-10-23,57,42,28,30,23,18,86,49,22,30.09,29.98,3,1,15,0.00
2013-10-24,59,39,26,27,23,10,90,59,16,30.16,30.08,3,0,15,0.00
2013-10-25,58,40,28,32,23,18,81,54,22,30.19,30.03,3,1,15,0.00
2013-10-26,55,38,25,31,24,16,90,60,27,30.25,30.16,2,0,15,0.00
2013-10-27,42,40,40,21,19,17,45,42,40,30.16,29.99,5,3,15,0.00
2013-10-29,51,35,18,28,19,7,95,59,18,29.95,29.73,7,2,17,0.00
2013-10-30,29,26,24,28,22,16,94,83,70,29.88,29.68,5,1,8,0.00
2013-10-31,33,27,23,21,17,13,80,67,55,30.05,29.83,11,5,27,0.00
2013-11-1,37,30,27,23,20,17,80,66,47,30.28,29.99,6,3,23,0.00
2013-11-2,56,40,26,17,7,-15,60,29,6,30.27,29.69,6,2,23,0.00
2013-11-3,53,41,22,22,11,-10,67,33,8,29.70,29.40,5,2,11,0.00
2013-11-4,33,22,13,20,14,6,88,72,58,30.00,29.61,5,1,12,0.00
2013-11-5,26,19,14,16,8,-1,88,62,42,30.32,29.97,8,2,15,0.00
2013-11-6,34,26,16,17,11,-2,68,53,42,30.51,30.25,9,5,25,0.00
2013-11-7,51,37,27,19,17,11,64,45,23,30.50,29.99,5,2,14,0.00
2013-11-8,49,40,27,18,14,7,62,36,25,29.99,29.62,9,3,13,0.00
2013-11-9,42,37,28,16,14,12,58,39,32,30.08,29.96,6,2,10,0.00
2013-11-10,54,41,29,19,16,14,57,38,23,30.17,30.10,4,1,8,0.00
2013-11-11,53,39,23,21,17,14,91,44,21,30.43,30.14,4,1,10,0.00
2013-11-12,52,34,20,24,18,4,92,57,23,30.56,30.42,2,0,6,0.00
2013-11-13,52,42,36,16,9,2,45,26,18,30.42,29.92,4,2,12,0.00
2013-11-14,45,34,24,24,14,-2,72,45,25,29.94,29.73,4,1,12,0.00
2013-11-15,47,34,24,26,12,-8,89,44,15,29.73,29.41,5,2,12,0.00
2013-11-16,29,26,24,21,16,12,81,65,52,29.53,29.30,6,4,13,0.01
2013-11-17,34,26,18,21,17,13,90,70,47,30.18,29.50,10,5,23,0.00
2013-11-18,49,35,23,18,11,2,60,39,18,30.22,30.02,9,3,16,0.00
2013-11-19,45,33,23,27,17,5,80,53,31,30.01,29.75,6,1,16,0.00
2013-11-20,42,33,25,26,23,19,87,68,45,29.89,29.73,4,1,12,0.01
2013-11-21,25,12,2,22,8,-2,89,84,73,30.74,29.88,2,0,12,0.00
2013-11-22,31,20,11,20,12,4,92,74,33,30.82,30.70,1,0,12,0.00
2013-11-23,27,20,12,19,15,9,93,82,52,30.69,30.40,3,0,6,0.00
2013-11-24,35,28,21,29,23,12,96,83,49,30.39,29.99,2,0,6,0.00
2013-11-25,31,24,17,20,15,8,83,68,42,30.40,30.02,2,0,7,0.00
2013-11-26,37,27,17,16,14,12,84,59,41,30.51,30.34,4,1,8,0.00
2013-11-27,47,34,23,18,13,7,70,42,24,30.34,30.08,4,2,12,0.00
2013-11-28,48,31,21,21,15,10,76,54,24,30.20,30.11,2,0,4,0.00
2013-11-29,42,34,28,17,14,11,54,44,32,30.19,30.11,7,3,14,0.00
2013-11-30,40,32,25,15,10,5,58,42,26,30.18,30.11,5,2,8,0.00
2013-12-1,36,31,26,24,16,8,73,54,41,30.18,29.75,12,4,23,0.00
2013-12-2,37,33,31,23,21,18,69,60,50,29.83,29.54,12,7,29,0.00
2013-12-3,34,24,3,27,17,-1,92,74,49,29.58,29.38,4,1,7,0.00
2013-12-4,3,-2,-12,-2,-7,-16,87,79,74,30.35,29.55,1,0,7,0.00
2013-12-5,15,-5,-19,4,-11,-24,86,74,56,30.44,30.26,2,0,5,0.00
2013-12-6,11,-5,-20,0,-11,-25,86,74,58,30.66,30.44,3,0,9,0.00
2013-12-7,21,8,-5,10,1,-9,87,74,53,30.59,29.93,2,0,4,0.00
2013-12-8,11,7,-2,6,-2,-10,92,68,50,30.18,29.81,7,1,23,0.00
2013-12-9,9,0,-6,-2,-11,-15,74,58,40,30.65,30.18,10,5,23,0.00
2013-12-10,24,18,8,9,5,-3,65,55,47,30.57,30.25,11,7,24,0.00
2013-12-11,33,25,16,6,-2,-15,63,33,14,30.48,30.30,6,3,23,0.01
2013-12-12,45,35,29,6,-3,-12,27,19,13,30.45,29.87,5,3,23,0.00
2013-12-13,35,28,19,12,7,2,62,43,26,30.11,29.73,5,3,23,0.00
2013-12-14,25,21,16,12,8,6,66,58,45,30.42,30.12,8,4,23,0.00
2013-12-15,36,29,23,17,13,9,66,52,35,30.41,30.13,10,6,27,0.00
2013-12-16,36,34,32,15,8,2,44,33,24,30.22,30.06,11,6,23,0.00
2013-12-17,44,37,30,13,10,5,42,33,23,30.31,30.08,5,3,23,0.00
2013-12-18,48,38,27,14,9,6,51,31,18,30.08,29.65,6,2,23,0.00
2013-12-19,47,31,16,19,15,10,98,57,24,29.65,29.46,4,1,23,0.00
2013-12-20,31,21,16,19,13,7,92,74,57,29.71,29.62,4,1,23,0.00
2013-12-21,25,19,12,11,7,3,73,59,43,29.95,29.56,4,2,23,0.00
2013-12-22,21,16,10,12,7,3,86,68,48,30.31,29.96,11,3,23,0.00
2013-12-23,31,23,16,19,15,12,87,70,53,30.40,30.25,7,3,23,0.01
2013-12-24,36,24,14,23,14,3,84,67,49,30.34,30.06,10,4,23,0.00
2013-12-25,30,22,15,3,0,-3,55,38,25,30.55,30.31,7,4,23,0.00
2013-12-26,37,29,24,15,6,-7,57,38,20,30.41,30.31,7,4,23,0.00
2013-12-27,47,34,24,20,16,14,73,50,30,30.34,30.05,3,1,23,0.00
2013-12-28,39,30,14,19,16,10,88,60,39,30.05,29.84,5,2,23,0.00
2013-12-29,24,18,8,11,5,-4,90,61,31,30.25,30.04,9,3,23,0.00
2013-12-30,28,23,18,12,10,3,76,57,43,30.36,30.14,6,3,23,0.00
2013-12-31,36,30,24,20,17,9,71,58,49,30.26,29.91,9,4,23,0.00
2014-1-1,29,22,17,23,14,8,89,72,49,30.33,29.87,6,2,23,0.00
2014-1-2,37,28,19,16,6,-7,63,41,19,30.40,30.06,7,3,23,0.00